Location: Huesca
(42.1318°N, 0.4078°W)
Time: 20:34:39
(UTC+02:00)

Explorer 7 - Pass Details

Date: 22 July 2024
Orbit: 445 x 571 km, 50.3° (Epoch: 14 June)

Event Time Altitude Azimuth Distance (km) Brightness Sun altitude
Exits shadow 03:21:31 27° 297° (WNW) 1,194 8.5 -25.4°
Maximum altitude 03:23:18 37° 343° (NNW) 944 8.3 -25.3°
Drops below altitude 10° 03:27:29 10° 52° (NE) 1,945 10.4 -25.0°
Sets 03:29:53 0° 61° (ENE) 2,831 11.2 -24.9°
